Location: Trebic
(49.2170°N, 15.8830°E)
Time: 15:56:22
(UTC+02:00)

Transit 4A - Pass Details

Date: 25 August 2019
Orbit: 865 x 980 km, 66.8° (Epoch: 19 September)

Event Time Altitude Azimuth Distance (km) Brightness Sun altitude
Rises 05:11:38 0° 310° (NW) 3,616 10.7 -8.4°
Reaches altitude 10° 05:16:07 10° 280° (W) 2,635 9.8 -7.7°
Maximum altitude 05:18:06 12° 261° (W) 2,497 9.5 -7.5°
Drops below altitude 10° 05:20:05 10° 241° (WSW) 2,602 9.5 -7.2°
Enters shadow 05:21:50 - 227° (SW) 2,878 9.9 -6.9°
Sets 05:24:27 0° 211° (SSW) 3,506 - -6.5°
